User: anonymous   Login
Location: Nairn
(57.5833°N, 3.8667°W)
Time: 12:52:14
(UTC+00:00)
Language:

Altair - Orbit

View from above orbital plane
View from above orbital plane
View from above satellite
View from above satellite

Ground track
Ground track

The orbit data is extracted from the following two-line orbital elements,

1 00050U 60009B   21131.57790271 -.00000096  00000-0 -10714-3 0  9999
2 00050  47.2297 182.8813 0114495 223.7602 135.4067 12.20117158710287
Epoch (UTC): 11 May 2021 13:52:10
Eccentricity: 0.0114495
inclination: 47.2297°
perigee height: 1501 km
apogee height: 1683 km
right ascension of ascending node: 182.8813°
argument of perigee: 223.7602°
revolutions per day: 12.20117158
mean anomaly at epoch: 135.4067°
orbit number at epoch: 71028

The dashed part of the orbit path shows where the satellite is in the earth's shadow,  

DLR